www.pogodaiklimat.ru

Погода и климат >> Архив погоды >> Австралия >> Южная Австралия >> Однадатта


ПОГОДА в Однадатте

  • Прогноз погоды в Однадатте
  • Монитор погоды в Однадатте

АРХИВ ПОГОДЫ в Однадатте

Время (UTC), дата Ветер
(напр.,м/с)
 
Видим.   Явления Облачность Т
(С)
Тd
(С)
f
(%)
Тe
(С)
Тes
(С)
Комфортность P
(гПа)
Po
(гПа)
Тmin
(С)
Tmax
(С)
R
(мм)
R24
(мм)
S
(см)
16 12.06 Ю 4 н/о н/о +11.2 +5.5 68 +9 +9 1020.9 1006.8
17 12.06 Ю 3 н/о н/о +10.1 +4.5 68 +8 +8 1021.0 1006.9
19 12.06 Ю 4 н/о н/о +8.6 +3.4 70 +6 +6 1021.2 1007.1
20 12.06 Ю 3 н/о н/о +8.2 +3.3 71 +6 +6 1021.7 1007.6
22 12.06 Ю 3 н/о н/о +6.7 +2.4 74 +4 +4 1022.6 1008.5
23 12.06 ЮЗ 2 н/о н/о +9.1 +3.3 67 +8 +8 1023.5 1009.4 0.2
01 13.06 Ю 4 н/о н/о +15.9 +4.0 45 +15 +15 1023.6 1009.5
02 13.06 Ю 6 н/о н/о +17.5 +3.0 38 +17 +17 1023.0 1008.9 +5.9
04 13.06 Ю 4 н/о н/о +18.4 +1.9 33 +18 +18 1021.3 1007.2
05 13.06 Ю 4 н/о н/о +18.9 +1.0 30 +19 +19 1020.6 1006.5
07 13.06 Ю 4 н/о н/о +19.7 -0.3 26 +20 +20 1020.0 1005.9
08 13.06 Ю 4 н/о н/о +18.6 -0.2 28 +19 +19 1020.4 1006.3
10 13.06 Ю 3 н/о н/о +14.2 -1.0 35 +14 +14 1021.9 1007.8
11 13.06 Ю 3 н/о н/о +12.9 -1.1 38 +12 +12 1022.4 1008.3
13 13.06 штиль 0 н/о н/о +11.4 -0.1 45 +11 +11 1023.0 1008.9
14 13.06 В 1 н/о н/о +9.9 -1.2 46 +10 +10 1022.9 1008.8 +20.4
16 13.06 штиль 0 н/о н/о +8.2 -2.4 47 +8 +8 1022.2 1008.1
17 13.06 Ю 2 н/о н/о +7.1 -3.1 48 +6 +6 1022.3 1008.2
19 13.06 Ю 2 н/о н/о +5.8 -4.3 48 +4 +4 1021.9 1007.8
20 13.06 штиль 0 н/о н/о +6.8 -1.3 56 +6 +6 1021.8 1007.7
22 13.06 штиль 0 н/о н/о +3.9 -5.6 50 +4 +4 1022.9 1008.8
23 13.06 Ю 1 н/о н/о +6.5 -2.4 53 +7 +7 1023.5 1009.4
01 14.06 Ю 2 н/о н/о +15.6 +3.4 44 +16 +16 1024.1 1010.0
02 14.06 Ю 4 н/о н/о +17.9 +3.4 38 +18 +18 1023.7 1009.6 +3.5
04 14.06 Ю 5 н/о н/о +19.4 +1.4 30 +19 +19 1021.4 1007.3
05 14.06 ЮВ 5 н/о н/о +19.5 +1.0 29 +20 +20 1020.7 1006.6
07 14.06 Ю 5 н/о н/о +19.7 +0.7 28 +20 +20 1020.7 1006.6
08 14.06 Ю 4 н/о н/о +18.7 +0.3 29 +19 +19 1020.9 1006.8
10 14.06 ЮВ 4 н/о н/о +13.6 -1.2 36 +13 +13 1022.2 1008.1
11 14.06 ЮВ 3 н/о н/о +13.0 -1.3 37 +12 +12 1022.7 1008.6
13 14.06 В 3 н/о н/о +10.1 -2.9 40 +8 +8 1022.6 1008.5
14 14.06 В 2 н/о н/о +9.2 -2.7 43 +8 +8 1022.4 1008.3 +21.2
16 14.06 штиль 0 н/о н/о +6.7 -3.8 47 +6 +6 1021.9 1007.8
17 14.06 штиль 0 н/о н/о +6.8 -0.9 58 +6 +6 1021.7 1007.6
19 14.06 ЮВ 2 н/о н/о +5.6 -1.5 60 +4 +4 1020.9 1006.8
20 14.06 ЮВ 2 н/о н/о +5.4 -2.0 59 +3 +3 1021.2 1007.1
22 14.06 ЮВ 1 н/о н/о +4.4 -2.4 61 +5 +5 1022.3 1008.2
23 14.06 штиль 0 н/о н/о +7.7 -1.5 52 +7 +7 1022.7 1008.6
01 15.06 СВ 1 н/о н/о +16.4 +3.5 42 +18 +18 1023.3 1009.2
02 15.06 СВ 4 н/о н/о +18.6 +2.9 35 +19 +19 1022.7 1008.6 +4.2
04 15.06 ЮВ 4 н/о н/о +19.0 +1.5 31 +19 +19 1020.5 1006.4
05 15.06 Ю 3 н/о н/о +19.8 +1.7 30 +20 +20 1019.5 1005.4
07 15.06 В 2 н/о н/о +19.7 +1.2 29 +20 +20 1019.6 1005.5
08 15.06 Ю 4 н/о н/о +18.8 +1.3 31 +19 +19 1019.9 1005.8
10 15.06 ЮВ 3 н/о н/о +16.0 +0.6 35 +16 +16 1021.0 1006.9
11 15.06 ЮВ 2 н/о н/о +15.3 +0.3 36 +15 +15 1021.7 1007.6
13 15.06 штиль 0 н/о н/о +13.1 +1.1 44 +13 +13 1022.0 1007.9
14 15.06 В 2 н/о н/о +10.7 -1.4 43 +10 +10 1022.0 1007.9 +20.6
16 15.06 ЮВ 2 н/о н/о +8.5 -3.7 42 +8 +8 1021.8 1007.7
17 15.06 ЮВ 2 н/о н/о +7.6 -3.3 46 +7 +7 1021.7 1007.6
19 15.06 З 2 н/о н/о +6.6 -1.8 55 +5 +5 1021.8 1007.7
20 15.06 СЗ 3 н/о н/о +5.9 -2.4 55 +3 +3 1021.9 1007.8
22 15.06 СЗ 4 н/о н/о +5.3 -2.3 58 +2 +2 1023.2 1009.1
23 15.06 С 1 н/о н/о +7.6 -1.6 52 +7 +7 1023.8 1009.7
01 16.06 СЗ 2 н/о н/о +15.9 +2.3 40 +16 +16 1024.5 1010.4
02 16.06 СЗ 4 н/о н/о +18.8 +2.6 34 +19 +19 1023.6 1009.5 +4.7
04 16.06 З 6 н/о н/о +20.8 +1.1 27 +21 +21 комфорт 1022.1 1008.0
05 16.06 ЮЗ 6 н/о н/о +21.0 +0.2 25 +21 +21 комфорт 1021.8 1007.7
07 16.06 Ю 6 н/о н/о +20.6 +0.4 26 +21 +21 комфорт 1021.7 1007.6
08 16.06 Ю 4 н/о н/о +19.2 +0.8 29 +19 +19 1022.0 1007.9
10 16.06 Ю 3 н/о н/о +15.0 +0.8 38 +14 +14 1023.2 1009.1
11 16.06 Ю 4 н/о н/о +13.5 +1.5 44 +12 +12 1023.7 1009.6
13 16.06 ЮВ 3 н/о н/о +11.7 +1.9 51 +10 +10 1023.8 1009.7
14 16.06 В 2 н/о н/о +11.1 +1.4 51 +11 +11 1024.3 1010.2 +22.0
16 16.06 ЮЗ 2 н/о н/о +8.9 +1.6 60 +7 +7 1023.9 1009.8
17 16.06 Ю 3 н/о н/о +7.2 -0.5 58 +5 +5 1023.8 1009.7
19 16.06 Ю 3 н/о н/о +6.0 -0.9 61 +3 +3 1023.4 1009.3
20 16.06 Ю 2 н/о н/о +5.8 -0.5 64 +4 +4 1023.9 1009.8
22 16.06 ЮЗ 2 н/о н/о +4.6 -2.0 62 +3 +3 1024.7 1010.6
23 16.06 СЗ 2 н/о н/о +6.9 -1.5 55 +5 +5 1025.4 1011.3
01 17.06 С 2 н/о н/о +15.7 +3.2 43 +16 +16 1025.8 1011.7
02 17.06 ЮВ 2 н/о н/о +17.6 +3.1 38 +18 +18 1025.3 1011.2 +4.0
04 17.06 З 4 н/о н/о +19.5 +3.2 34 +20 +20 1023.2 1009.1
05 17.06 З 4 н/о н/о +20.0 +3.3 33 +21 +21 комфорт 1022.6 1008.5
07 17.06 ЮЗ 6 н/о н/о +19.5 +2.8 33 +20 +20 1022.5 1008.4
08 17.06 ЮЗ 6 н/о н/о +18.2 +2.9 36 +18 +18 1022.9 1008.8
10 17.06 Ю 4 н/о н/о +14.7 +1.9 42 +14 +14 1024.0 1009.9
11 17.06 Ю 4 н/о н/о +13.1 +1.8 46 +12 +12 1024.3 1010.2
13 17.06 Ю 2 н/о н/о +11.7 +1.4 49 +11 +11 1024.3 1010.2
14 17.06 штиль 0 н/о н/о +10.5 -0.3 47 +10 +10 1024.2 1010.1 +20.9
16 17.06 СЗ 2 н/о н/о +9.0 -0.1 53 +8 +8 1023.8 1009.7
17 17.06 СЗ 3 н/о н/о +7.2 -1.7 53 +5 +5 1024.0 1009.9
19 17.06 СЗ 3 н/о н/о +7.3 -0.6 57 +5 +5 1024.0 1009.9
20 17.06 СЗ 3 н/о н/о +6.0 -1.4 59 +3 +3 1024.3 1010.2
22 17.06 ЮЗ 3 н/о н/о +7.1 +1.6 68 +5 +5 1026.2 1012.0
23 17.06 ЮЗ 5 н/о н/о +9.4 +4.0 69 +6 +6 1026.8 1012.6
01 18.06 Ю 7 н/о н/о +13.7 +7.7 67 +11 +11 1027.5 1013.3
02 18.06 Ю 7 н/о н/о +16.0 +8.0 59 +15 +15 1026.8 1012.6 +4.1
04 18.06 Ю 6 н/о н/о +17.6 +6.5 48 +17 +17 1024.7 1010.6
05 18.06 Ю 7 н/о н/о +18.9 +5.7 42 +19 +19 1023.9 1009.8
07 18.06 Ю 6 н/о н/о +17.6 +3.9 40 +17 +17 1024.0 1009.9
08 18.06 Ю 5 н/о н/о +17.1 +3.4 40 +16 +16 1024.2 1010.1
10 18.06 ЮВ 5 н/о н/о +16.3 +2.7 40 +15 +15 1025.1 1011.0
11 18.06 ЮВ 5 н/о н/о +15.8 +2.9 42 +15 +15 1025.3 1011.2
13 18.06 ЮВ 4 н/о н/о +14.7 +2.3 43 +14 +14 1025.9 1011.8
14 18.06 Ю 4 н/о н/о +13.1 +2.1 47 +12 +12 1025.9 1011.8 +19.6
16 18.06 ЮВ 5 н/о н/о +9.1 0.0 53 +6 +6 1025.3 1011.2
17 18.06 ЮВ 4 н/о н/о +8.4 +0.1 56 +6 +6 1025.1 1011.0
19 18.06 ЮВ 2 н/о н/о +6.7 -0.5 60 +5 +5 1025.0 1010.9
20 18.06 штиль 0 н/о н/о +6.0 -0.5 63 +5 +5 1025.7 1011.6
22 18.06 Ю 3 н/о н/о +3.6 -2.1 66 +1 +1 1027.0 1012.8
23 18.06 Ю 2 н/о н/о +5.7 -1.2 61 +4 +4 1027.7 1013.5
01 19.06 Ю 4 н/о н/о +12.6 +0.7 44 +11 +11 1028.0 1013.8
02 19.06 Ю 4 н/о н/о +14.1 +0.7 40 +13 +13 1027.4 1013.2 +3.5
04 19.06 ЮЗ 4 н/о н/о +14.7 +0.2 37 +14 +14 1025.3 1011.2
05 19.06 Ю 4 н/о н/о +15.7 +0.3 35 +15 +15 1024.5 1010.4
07 19.06 Ю 5 н/о н/о +15.6 -0.6 33 +15 +15 1024.5 1010.4
08 19.06 Ю 4 н/о н/о +14.9 -0.8 34 +14 +14 1024.7 1010.6
10 19.06 Ю 3 н/о н/о +11.0 -1.4 42 +10 +10 1025.3 1011.2
11 19.06 Ю 3 н/о н/о +10.1 -1.6 44 +8 +8 1025.6 1011.5
13 19.06 Ю 2 н/о н/о +7.5 -2.5 49 +6 +6 1026.1 1011.9
14 19.06 ЮЗ 2 н/о н/о +6.6 -2.3 53 +5 +5 1025.9 1011.8 +16.4
16 19.06 штиль 0 н/о н/о +5.3 -2.3 58 +5 +5 1025.9 1011.8

 

Местоположение метеостанции Однадатта (Южная Австралия, Австралия): широта -27.55 долгота 135.45 высота над уровнем моря 117 м.

В архиве по умолчанию представлена погода в Однадатте за последнюю неделю. Архивные данные за месяц целиком и за предыдущие месяцы, начиная с января 2011 года, Вы можете получить, выбрав интересующий диапазон дат из раскрывающегося списка и нажав кнопку "Ввод!".


*Определитесь, кто Вы:
робот инопланетянин человек

Внимание! Время в таблицах - всемирное. Для получения местного времени необходимо прибавить поправку, которая равна 9.5 ч.

Смотрите также архив погоды в соседних городах и на ближайших метеорологических станциях:

Погода в Кубер-Педи (Южная Австралия, Австралия) (180 км)
Погода в Марри (Южная Австралия, Австралия) (346 км)
Погода в Эрнабелле (Южная Австралия, Австралия) (354 км)
Погода в Олимпик Дэм (Южная Австралия, Австралия) (354 км)
Погода в Таркуле (Южная Австралия, Австралия) (363 км)
Погода на Аэродроме Вумера (Южная Австралия, Австралия) (422 км)
Погода в Бердсвилле (Квинсленд, Австралия) (429 км)
Погода в Ли-Крике (Южная Австралия, Австралия) (445 км)
Погода в Элис-Спрингсе (Северная территория, Австралия) (446 км)
Погода в Мумбе (Южная Австралия, Австралия) (471 км)

Пояснения к столбцам:

Ветер - указаны скорость ветра в м/с - средняя за 10 мин, порывы в срок и между сроками (в фигурных скобках) и направление, откуда дует ветер: С - северный, СВ - северо-восточный, В - восточный, ЮВ - юго-восточный, Ю - южный, ЮЗ - юго-западный, З - западный, СЗ - северо-западный.
Видимость - горизонтальная дальность видимости в метрах или километрах. При видимости от 1 до 10 км при отсутствии осадков обычно наблюдается дымка, при ухудшении видимости до 1 км и менее - туман. В сухую погоду видимость может ухудшаться дымом, пылью или мглою.
Явления - указаны атмосферные явления, наблюдавшиеся в срок или в последний час перед сроком; фигурными скобками обозначены явления, наблюдавшиеся между сроками (за 1-3 часа до срока); квадратными скобками обозначены град или гололедные отложения с указанием их диаметра в мм.
Облачность - указаны через наклонную черту общая и нижняя облачность в баллах и высота нижней границы облаков в метрах; квадратными скобками обозначены формы облаков: Ci - перистые, Cs - перисто-слоистые, Cc - перисто-кучевые, Ac - высококучевые, As - высокослоистые, Sc - слоисто-кучевые, Ns - слоисто-дождевые, Cu - кучевые, Cb - кучево-дождевые. Подробнее классификацию облаков см. в Атласе облаков (PDF).
T - Температура воздуха - температура, измеренная на высоте 2 м над землей.
Td - Температура точки росы - температура, при понижении до которой содержащийся в воздухе водяной пар достигнет насыщения.
f - Относительная влажность воздуха - влажноcть воздуха, измеренная на высоте 2 м над землей.
Te - Эффективная температура - температура, которую ощущает одетый по сезону человек в тени. Характеристика душности погоды. При расчете учитывается влияние влажности воздуха и скорости ветра на теплоощущения человека.
Tes - Эффективная температура на солнце - температура, которую ощущает человек, с поправкой на солнечный нагрев. Характеристика знойности погоды. Зависит от высоты солнца над горизонтом, облачности и скорости ветра. Ночью, в пасмурную погоду, а также при ветре 12 м/с и более поправка равна нулю.
P - Атмосферное давление - приведенное к уровню моря атмосферное давление.
Po - Атмосферное давление - измеренное на уровне метеостанции атмосферное давление.
Tmin - Минимальная температура - минимум температуры воздуха на высоте 2 м над землей.
Tmax - Максимальная температура - максимум температуры воздуха на высоте 2 м над землей.
R - Количество осадков - Количество выпавших осадков за период времени, мм. При наведении курсора мыши на число - период времени, за который выпало указанное количество осадков.
R24 - Количество осадков - Количество выпавших осадков за 24 часа, мм.
S - Снежный покров - Высота снежного покрова, см. При наведении курсора мыши на число - состояние снежного покрова и степень покрытия местности в баллах.